Location: Igon
(43.1667°N, 0.2333°W)
Time: 20:55:33
(UTC+00:00)

CENTAUR R/B - Pass Details

Date: 29 November 2020
Orbit: 750 x 1438 km, 63.4° (Epoch: 11 January)

Event Time Altitude Azimuth Distance (km) Brightness Sun altitude
Exits shadow 05:48:51 19° 284° (WNW) 2,817 4.2 -14.6°
Maximum altitude 05:52:24 25° 252° (WSW) 2,544 4.2 -14.0°
Drops below altitude 10° 05:59:05 10° 202° (SSW) 3,539 5.4 -12.9°
Sets 06:02:40 0° 190° (S) 4,501 6.1 -12.2°
